GW3570 Weather Reports


Display with metric or nautical units.
time (UTC)temp
F
wind
direction
speed
MPH
gust
MPH
rain 1hr
in
rain 24hr
in
rain mn
in
humidity
%
barometer
mb
20260502170348 58 343 5.0 6.0 0.00 0.00 0.00 45 1022.5
20260502164335 59 227 2.0 2.0 0.00 0.00 0.00 45 1022.2
20260502163831 58 335 3.0 5.0 0.00 0.00 0.00 43 1022.3
20260502163327 59 280 4.0 6.0 0.00 0.00 0.00 43 1022.2
20260502162825 59 263 3.0 3.0 0.00 0.00 0.00 44 1022.1
20260502162322 61 211 1.0 1.0 0.00 0.00 0.00 40 1022.3
20260502161819 61 188 2.0 2.0 0.00 0.00 0.00 38 1022.1
20260502161315 59 334 2.0 2.0 0.00 0.00 0.00 42 1022.1
20260502160813 59 268 1.0 1.0 0.00 0.00 0.00 42 1022.0
20260502160312 58 316 2.0 3.0 0.00 0.00 0.00 41 1022.1
20260502152242 58 311 1.0 2.0 0.00 0.00 0.00 50 1022.3
20260502151739 58 332 6.0 7.0 0.00 0.00 0.00 50 1022.2
20260502151236 58 310 6.0 7.0 0.00 0.00 0.00 48 1022.1
20260502150733 58 302 2.0 3.0 0.00 0.00 0.00 52 1022.2
20260502150229 57 348 4.0 5.0 0.00 0.00 0.00 53 1022.1
20260502130613 45 236 0.0 1.0 0.00 0.00 0.00 90 1021.7
20260502130110 44 236 0.0 1.0 0.00 0.00 0.00 93 1021.5
20260502123555 42 152 0.0 0.0 0.00 0.00 0.00 97 1021.5
20260502123052 42 178 0.0 0.0 0.00 0.00 0.00 97 1021.4
20260502122549 42 157 0.0 0.0 0.00 0.00 0.00 97 1021.2
20260502122046 41 138 0.0 0.0 0.00 0.00 0.00 97 1021.3
20260502121544 41 145 0.0 0.0 0.00 0.00 0.00 97 1021.3
20260502121041 41 168 0.0 0.0 0.00 0.00 0.00 97 1021.4
20260502120537 41 145 0.0 0.0 0.00 0.00 0.00 97 1021.0
20260502115532 41 45 0.0 0.0 0.00 0.00 0.00 97 1020.8
20260502115027 41 42 0.0 0.0 0.00 0.00 0.00 97 1020.7
20260502114524 41 42 0.0 0.0 0.00 0.00 0.00 97 1020.8
20260502114021 41 126 0.0 0.0 0.00 0.00 0.00 97 1020.6
20260502113519 40 114 0.0 0.0 0.00 0.00 0.00 97 1020.6
20260502113017 40 54 0.0 0.0 0.00 0.00 0.00 97 1020.6
20260502112515 40 54 0.0 0.0 0.00 0.00 0.00 97 1020.5
20260502112012 40 57 0.0 0.0 0.00 0.00 0.00 97 1020.7
20260502111509 40 60 0.0 0.0 0.00 0.00 0.00 97 1020.5
20260502111007 40 122 0.0 0.0 0.00 0.00 0.00 97 1020.3
20260502110504 40 162 0.0 0.0 0.00 0.00 0.00 97 1020.3
20260502110001 40 137 0.0 0.0 0.00 0.00 0.00 97 1020.3
20260502105459 40 177 0.0 0.0 0.00 0.00 0.00 97 1020.1
20260502104956 40 190 0.0 0.0 0.00 0.00 0.00 97 1020.2
20260502104453 40 257 0.0 0.0 0.00 0.00 0.00 97 1020.2
20260502103950 40 187 0.0 0.0 0.00 0.00 0.00 97 1020.5
20260502103448 40 186 0.0 0.0 0.00 0.00 0.00 97 1020.1
20260502102945 40 186 0.0 0.0 0.00 0.00 0.00 97 1020.1
20260502102442 41 167 0.0 0.0 0.00 0.00 0.00 97 1020.0
20260502101938 40 161 0.0 0.0 0.00 0.00 0.00 97 1019.9
20260502101437 41 259 0.0 0.0 0.00 0.00 0.00 97 1019.9
20260502100935 40 152 0.0 1.0 0.00 0.00 0.00 97 1019.8
20260502100434 40 251 0.0 0.0 0.00 0.00 0.00 97 1019.8
20260502091408 41 153 0.0 0.0 0.00 0.00 0.00 97 1019.3
20260502090904 41 222 0.0 0.0 0.00 0.00 0.00 97 1019.5
20260502090401 42 195 0.0 0.0 0.00 0.00 0.00 97 1019.3
20260502071256 44 189 0.0 0.0 0.00 0.00 0.00 96 1019.0
20260502070755 44 268 1.0 1.0 0.00 0.00 0.00 96 1018.9
20260502070252 44 346 1.0 1.0 0.00 0.00 0.00 95 1019.1
20260502065751 44 349 0.0 0.0 0.00 0.00 0.00 95 1019.1
20260502065248 44 7 1.0 1.0 0.00 0.00 0.00 95 1019.2
20260502064746 44 29 1.0 1.0 0.00 0.00 0.00 95 1019.1
20260502064244 44 326 1.0 1.0 0.00 0.00 0.00 95 1019.1
20260502063741 44 299 0.0 0.0 0.00 0.00 0.00 95 1018.9
20260502063239 44 287 0.0 1.0 0.00 0.00 0.00 95 1019.2
20260502062735 45 225 0.0 0.0 0.00 0.00 0.00 95 1019.1
20260502062233 45 184 0.0 0.0 0.00 0.00 0.00 95 1019.2
20260502061732 45 228 0.0 0.0 0.00 0.00 0.00 95 1019.2
20260502061229 45 190 0.0 0.0 0.00 0.00 0.00 95 1019.2
20260502060724 45 186 0.0 0.0 0.00 0.00 0.00 95 1019.4
20260502060220 45 202 0.0 0.0 0.00 0.00 0.00 95 1019.4
20260502055718 45 212 0.0 0.0 0.00 0.00 0.00 95 1019.2
20260502055216 45 215 0.0 0.0 0.00 0.00 0.00 95 1019.3
20260502054715 45 220 0.0 0.0 0.00 0.00 0.00 94 1019.3
20260502054212 45 210 0.0 0.0 0.00 0.00 0.00 94 1019.0
20260502053709 46 182 0.0 0.0 0.00 0.00 0.00 94 1019.3
20260502053206 46 51 2.0 2.0 0.00 0.00 0.00 94 1019.0
20260502052704 46 280 0.0 1.0 0.00 0.00 0.00 94 1019.2
20260502052203 46 232 0.0 0.0 0.00 0.00 0.00 94 1019.0
20260502051700 47 179 0.0 0.0 0.00 0.00 0.00 93 1018.9
20260502051158 47 225 0.0 0.0 0.00 0.00 0.00 93 1019.0
20260502050654 47 192 0.0 0.0 0.00 0.00 0.00 93 1018.9
20260502050151 47 268 1.0 1.0 0.00 0.00 0.00 93 1018.9
20260502045648 47 274 1.0 1.0 0.00 0.01 0.01 93 1018.9
20260502045145 47 290 1.0 1.0 0.00 0.01 0.01 92 1019.0
20260502044641 47 306 1.0 1.0 0.00 0.01 0.01 92 1018.9
20260502044137 47 289 1.0 1.0 0.00 0.01 0.01 92 1018.9
20260502043635 47 300 1.0 1.0 0.00 0.01 0.01 91 1019.0
20260502043132 47 278 1.0 1.0 0.00 0.01 0.01 91 1018.8
20260502042626 48 204 0.0 0.0 0.00 0.01 0.01 91 1018.9
20260502042123 48 276 0.0 0.0 0.00 0.01 0.01 90 1018.9
20260502041621 48 194 0.0 0.0 0.00 0.01 0.01 90 1019.0
20260502041118 48 199 0.0 0.0 0.00 0.01 0.01 89 1019.0
20260502040615 48 212 0.0 0.0 0.00 0.01 0.01 89 1019.2
20260502040112 48 200 0.0 0.0 0.00 0.01 0.01 89 1019.2
20260502035608 48 193 0.0 0.0 0.00 0.01 0.01 89 1019.1
20260502035105 48 229 0.0 0.0 0.00 0.01 0.01 88 1019.1
20260502034603 48 183 0.0 0.0 0.00 0.01 0.01 88 1019.0
20260502034101 48 231 0.0 0.0 0.00 0.01 0.01 88 1019.1
20260502033559 48 198 0.0 0.0 0.00 0.01 0.01 87 1019.1
20260502033056 48 189 0.0 0.0 0.00 0.01 0.01 87 1019.1
20260502032552 48 230 0.0 0.0 0.00 0.01 0.01 87 1018.9
20260502032049 48 293 1.0 2.0 0.00 0.01 0.01 86 1019.1
20260502031547 49 286 1.0 1.0 0.00 0.01 0.01 85 1019.0
20260502031044 49 53 1.0 1.0 0.00 0.01 0.01 85 1018.9
20260502030543 50 326 2.0 2.0 0.00 0.01 0.01 84 1019.0
20260502030040 50 201 0.0 0.0 0.00 0.01 0.01 83 1019.1
20260502025537 50 254 1.0 1.0 0.00 0.01 0.01 82 1018.9
20260502025036 50 198 0.0 0.0 0.00 0.01 0.01 82 1018.9
20260502024532 50 44 1.0 1.0 0.00 0.01 0.01 81 1018.6
20260502024031 51 184 0.0 0.0 0.00 0.01 0.01 81 1018.6
20260502023528 51 7 1.0 1.0 0.00 0.01 0.01 81 1018.6
20260502023025 51 35 1.0 1.0 0.00 0.01 0.01 80 1018.6
20260502022522 51 37 0.0 1.0 0.00 0.01 0.01 78 1018.1
20260502022020 52 23 1.0 1.0 0.00 0.01 0.01 78 1018.0
20260502021517 52 21 0.0 0.0 0.00 0.01 0.01 76 1018.1
20260502021014 52 48 0.0 0.0 0.00 0.01 0.01 76 1018.2
20260502020512 52 29 1.0 1.0 0.00 0.01 0.01 74 1018.0
20260502020009 52 4 1.0 1.0 0.00 0.01 0.01 73 1017.9
20260502015507 53 30 0.0 0.0 0.00 0.01 0.01 71 1017.8
20260502015002 53 48 0.0 0.0 0.00 0.01 0.01 71 1017.9
20260502014459 53 29 1.0 1.0 0.00 0.01 0.01 68 1017.8
20260502013956 54 29 1.0 1.0 0.00 0.01 0.01 67 1017.7
20260502013451 54 48 1.0 1.0 0.00 0.01 0.01 66 1017.7
20260502012948 55 44 1.0 1.0 0.00 0.01 0.01 64 1017.4
20260502012446 55 49 0.0 0.0 0.00 0.01 0.01 64 1017.3
20260502011943 56 14 1.0 1.0 0.00 0.01 0.01 65 1017.3
20260502011439 56 51 0.0 0.0 0.00 0.01 0.01 61 1017.3
20260502010936 56 50 0.0 1.0 0.00 0.01 0.01 60 1017.1
20260502010433 57 52 1.0 1.0 0.00 0.01 0.01 60 1017.1
20260502005929 57 39 1.0 2.0 0.00 0.01 0.01 58 1016.7
20260502005427 59 48 1.0 1.0 0.00 0.01 0.01 58 1017.0
20260502004925 60 54 0.0 1.0 0.00 0.01 0.01 48 1016.9
20260502004421 61 6 1.0 1.0 0.00 0.01 0.01 52 1016.9
20260502003918 62 313 1.0 1.0 0.00 0.01 0.01 52 1016.7
20260502003416 62 264 1.0 1.0 0.00 0.01 0.01 46 1016.7
20260502002911 63 256 1.0 1.0 0.00 0.01 0.01 44 1016.8
20260502002409 63 248 1.0 1.0 0.00 0.01 0.01 39 1016.7
20260502001906 63 306 2.0 2.0 0.00 0.01 0.01 39 1016.5
20260502001403 64 8 4.0 5.0 0.00 0.01 0.01 38 1016.9
20260502000901 64 297 3.0 3.0 0.00 0.01 0.01 37 1016.5
20260502000402 64 278 3.0 3.0 0.00 0.01 0.01 37 1016.8
20260501235855 64 290 3.0 3.0 0.00 0.01 0.01 37 1016.6
20260501235351 64 263 3.0 3.0 0.00 0.01 0.01 42 1016.6
20260501234846 64 270 2.0 3.0 0.00 0.01 0.01 39 1016.8
20260501234343 64 259 3.0 5.0 0.00 0.01 0.01 38 1016.7
20260501233842 64 260 2.0 3.0 0.00 0.01 0.01 37 1016.9
20260501233339 63 257 3.0 3.0 0.00 0.01 0.01 39 1016.8
20260501232834 63 309 3.0 3.0 0.00 0.01 0.01 39 1016.8
20260501232332 63 299 3.0 3.0 0.00 0.01 0.01 40 1016.8
20260501231829 63 265 6.0 7.0 0.00 0.01 0.01 40 1016.7
20260501231327 63 337 3.0 3.0 0.00 0.01 0.01 41 1016.6
20260501230825 63 270 3.0 3.0 0.00 0.01 0.01 41 1016.6
20260501230324 63 286 3.0 3.0 0.00 0.01 0.01 37 1016.8
20260501225821 63 254 5.0 6.0 0.00 0.01 0.01 37 1016.8
20260501225319 64 324 7.0 9.0 0.00 0.01 0.01 36 1016.7
20260501224815 64 330 5.0 7.0 0.00 0.01 0.01 37 1016.8
20260501224312 64 243 2.0 2.0 0.00 0.01 0.01 43 1016.6
20260501223808 64 254 5.0 6.0 0.00 0.01 0.01 36 1016.6
20260501223304 64 266 6.0 7.0 0.00 0.01 0.01 38 1016.7
20260501222800 64 248 3.0 3.0 0.00 0.01 0.01 36 1016.5
20260501222258 65 248 4.0 6.0 0.00 0.01 0.01 36 1016.5
20260501221755 65 240 3.0 3.0 0.00 0.01 0.01 34 1016.8
20260501221252 65 244 3.0 3.0 0.00 0.01 0.01 33 1016.7
20260501220750 64 328 4.0 5.0 0.00 0.01 0.01 35 1016.9
20260501220247 64 293 6.0 7.0 0.00 0.01 0.01 36 1017.0
20260501215744 65 259 7.0 8.0 0.00 0.01 0.01 37 1017.2
20260501215239 66 264 5.0 6.0 0.00 0.01 0.01 33 1017.3
20260501214734 66 265 4.0 7.0 0.00 0.01 0.01 35 1017.3
20260501214231 66 300 2.0 2.0 0.00 0.01 0.01 35 1017.3
20260501213727 66 258 3.0 3.0 0.00 0.01 0.01 38 1017.6
20260501213223 64 239 2.0 2.0 0.00 0.01 0.01 32 1017.5
20260501212719 64 267 3.0 5.0 0.00 0.01 0.01 36 1017.8
20260501212216 63 259 3.0 3.0 0.00 0.01 0.01 43 1017.8
20260501211713 62 318 2.0 2.0 0.00 0.01 0.01 35 1018.0
20260501211210 63 265 5.0 5.0 0.00 0.01 0.01 37 1017.9
20260501210707 63 241 3.0 3.0 0.00 0.01 0.01 39 1018.1
20260501210204 63 236 3.0 3.0 0.00 0.01 0.01 39 1018.2
20260501205700 63 230 2.0 2.0 0.00 0.01 0.01 40 1018.3
20260501205157 65 213 2.0 2.0 0.00 0.01 0.01 36 1018.5
20260501204654 64 284 1.0 1.0 0.00 0.01 0.01 31 1018.3
20260501204150 64 320 3.0 3.0 0.00 0.01 0.01 33 1018.4
20260501203647 65 283 4.0 6.0 0.00 0.01 0.01 31 1018.5
20260501203145 65 276 5.0 6.0 0.00 0.01 0.01 33 1018.6
20260501202641 65 304 10.0 11.0 0.00 0.01 0.01 29 1018.7
20260501202138 65 286 2.0 2.0 0.00 0.01 0.01 34 1018.9
20260501201635 64 4 5.0 6.0 0.00 0.01 0.01 31 1019.0
20260501201132 64 324 6.0 7.0 0.00 0.01 0.01 32 1019.0
20260501200628 65 323 5.0 7.0 0.00 0.01 0.01 35 1018.8
20260501200126 65 250 4.0 5.0 0.00 0.01 0.01 42 1019.0
20260501195623 66 237 5.0 7.0 0.00 0.01 0.01 47 1019.0
20260501195119 65 254 2.0 2.0 0.00 0.01 0.01 35 1019.1
20260501194614 65 235 5.0 6.0 0.00 0.01 0.01 40 1019.2
20260501194110 64 231 3.0 3.0 0.00 0.01 0.01 36 1019.4
20260501193608 65 259 6.0 7.0 0.00 0.01 0.01 38 1019.4
20260501193107 65 267 3.0 3.0 0.00 0.01 0.01 33 1019.5
20260501192603 65 233 0.0 1.0 0.00 0.01 0.01 37 1019.4
20260501192101 66 179 2.0 2.0 0.00 0.01 0.01 34 1019.3
20260501191558 64 221 1.0 1.0 0.00 0.01 0.01 33 1019.4
20260501191055 65 281 4.0 5.0 0.00 0.01 0.01 37 1019.5
20260501190550 63 248 1.0 1.0 0.00 0.01 0.01 37 1019.8
20260501190046 63 347 3.0 3.0 0.00 0.01 0.01 36 1019.6
20260501185542 63 186 0.0 0.0 0.00 0.01 0.01 33 1019.6
20260501185038 62 257 3.0 3.0 0.00 0.01 0.01 36 1019.7
20260501184535 63 301 5.0 6.0 0.00 0.01 0.01 33 1019.7
20260501184034 62 301 4.0 6.0 0.00 0.01 0.01 41 1019.6
20260501183532 63 270 3.0 3.0 0.00 0.01 0.01 33 1019.7
20260501183028 63 249 1.0 2.0 0.00 0.01 0.01 35 1019.6
20260501182525 63 192 5.0 6.0 0.00 0.01 0.01 40 1019.6
20260501182022 63 213 3.0 3.0 0.00 0.01 0.01 44 1019.6
20260501181519 63 263 2.0 3.0 0.00 0.01 0.01 42 1019.5
20260501181016 63 244 3.0 3.0 0.00 0.01 0.01 40 1019.6
20260501180514 62 258 4.0 5.0 0.00 0.01 0.01 48 1019.7
20260501180009 63 302 4.0 6.0 0.00 0.01 0.01 39 1019.9
20260501175506 62 226 2.0 2.0 0.00 0.01 0.01 43 1019.6
20260501175003 62 240 3.0 3.0 0.00 0.01 0.01 47 1019.7
20260501174500 62 246 5.0 7.0 0.00 0.01 0.01 40 1019.9
20260501173958 61 272 5.0 7.0 0.00 0.01 0.01 40 1020.0
20260501173455 61 306 5.0 7.0 0.00 0.01 0.01 43 1019.9
20260501172951 61 254 5.0 6.0 0.00 0.01 0.01 41 1020.0
20260501172447 61 279 5.0 6.0 0.00 0.01 0.01 43 1019.9
20260501171942 61 254 6.0 9.0 0.00 0.01 0.01 47 1020.1
20260501171439 61 244 4.0 5.0 0.00 0.01 0.01 46 1020.1